Simultaneous Nadir Overpasses (SNOs) Predictions

Prediction of SNOs between GOES-14 and NOAA-20 Satellite Orbit:

Table of predicted SNOs for the next 14.0 days since TLE Epoch: 5/22/2020
Index Date Time (GOES-14) GOES-14 Lat,Lon NOAA-20 Lat,Lon Distance(km) Time Diff (sec)
1 05/22/2020 20:08:45 -0.07,-104.26 0.60,-101.34 333.35 80
2 05/24/2020 08:30:32 0.04,-104.14 0.57,-106.61 281.21 80
3 05/25/2020 08:14:27 0.05,-104.14 -0.41,-102.07 235.95 80
4 05/26/2020 20:36:24 -0.02,-104.28 -0.70,-107.39 354.95 80
5 05/27/2020 20:14:58 -0.04,-104.27 0.28,-102.86 161.35 80
6 05/29/2020 08:36:46 0.01,-104.13 0.89,-108.13 455.09 80
7 05/30/2020 08:20:40 0.03,-104.13 -0.09,-103.59 62.03 80
8 06/01/2020 20:23:52 -0.01,-104.28 -0.03,-104.37 10.72 80
9 06/04/2020 08:24:14 -0.00,-104.13 0.22,-105.10 111.51 80
10 06/05/2020 08:08:09 0.01,-104.13 -0.82,-100.58 405.51 80




NCC Satellite Simultaneous Nadir Overpasses (SNOs) Prediction Service
